Location: Cahoon Acres
(40.8736°N, 111.8994°W)
Time: 04:33:49
(UTC+00:00)

Envisat - Visible Passes

Search period start: 04 August 2021 00:00
Search period end: 14 August 2021 00:00
Orbit: 764 x 766 km, 98.2° (Epoch: 03 August)

Date Brightness Start Highest point End Pass type
(mag) Time Alt. Az. Time Alt. Az. Time Alt. Az.
04 Aug 6.1 11:19:23 10° ENE 11:20:48 11° E 11:22:15 10° ESE visible
06 Aug 5.6 11:42:43 10° NE 11:46:27 20° E 11:50:09 10° SE visible
09 Aug 5.8 11:31:47 10° NE 11:34:51 16° E 11:37:53 10° SE visible
11 Aug 5.2 11:56:06 10° NE 12:00:26 28° E 12:04:44 10° SSE visible
12 Aug 6.0 11:21:14 10° ENE 11:23:14 12° E 11:25:13 10° ESE visible
